• Join FlightAware (Why Join?)
  • Login
  • US Flag 
08:37PM EST


 

Airport Tracker/Info


-or-


 

Live Flight TrackerFlight Track Log ✈ UCA596 ✈ 11-Sep-2013 ✈ KIAD - KBGM

Flight Track Log - Related Links

Times and Time Zones

All times are in EDT time to prevent confusion due to time zone crossing. See the UCA596 flight status page for this flight to view local times or setup timezone preferences in your user account.

Time Position Orientation Groundspeed Altitude Reporting Facility
EDT Latitude Longitude Course Direction KTS MPH feet Rate Location/Type
01:35PM 38.9667 -77.5167 North 175 201 2,200  Level Potomac TRACON
01:36PM 39.0000 -77.5667 311° West 192 221 3,800 1,640 Climbing Potomac TRACON
01:37PM 39.0753 -77.6425 322° Northwest 199 229 6,600 1,593 Climbing Washington Center
01:38PM 39.1231 -77.6464 356° North 185 213 8,100 1,525 Climbing Washington Center
01:39PM 39.1772 -77.6478 359° North 185 213 9,700 1,388 Climbing Washington Center
01:40PM 39.3754 -77.2741 North  Level Estimated
01:40PM 39.2336 -77.6389 North 185 213 10,900  Level Washington Center
01:41PM 39.2864 -77.6028 28° Northeast 191 220 12,800 1,729 Climbing Washington Center
01:42PM 39.3408 -77.5800 18° North 203 234 14,300 1,462 Climbing Washington Center
01:43PM 39.3933 -77.5572 19° North 203 234 15,700 1,131 Climbing Washington Center
01:44PM 39.4544 -77.5294 19° North 209 241 16,600 908 Climbing Washington Center
01:45PM 39.5131 -77.4986 22° Northeast 215 247 17,500 735 Climbing Washington Center
01:48PM 39.6653 -77.4219 21° North 241 277 19,000 455 Climbing New York Center
01:49PM 39.7297 -77.3903 21° North 246 283 19,000  Level New York Center
01:50PM 39.8069 -77.3514 21° North 262 302 19,000  Level New York Center
01:51PM 39.8753 -77.3228 18° North 276 318 19,000  Level New York Center
01:52PM 39.9561 -77.2925 16° North 276 318 19,000  Level New York Center
01:53PM 40.0203 -77.2631 19° North 276 318 19,000  Level New York Center
01:54PM 40.1039 -77.2219 21° North 276 318 19,000  Level New York Center
01:55PM 40.1683 -77.1872 22° Northeast 276 318 19,000  Level New York Center
01:56PM 40.2475 -77.1483 21° North 276 318 19,000  Level New York Center
01:57PM 40.3142 -77.1136 22° Northeast 276 318 19,000 -50 Level New York Center
01:58PM 40.3956 -77.0719 21° North 282 325 18,900 -300 Descending New York Center
01:59PM 40.4661 -77.0375 20° North 282 325 18,400 -700 Descending New York Center
02:00PM 40.5519 -76.9933 21° North 282 325 17,500 -900 Descending New York Center
02:01PM 40.6225 -76.9589 20° North 287 330 16,600 -1,050 Descending New York Center
02:02PM 40.7061 -76.9117 23° Northeast 292 336 15,400 -800 Descending New York Center
02:03PM 40.7747 -76.8767 21° North 292 336 15,000 -200 Descending New York Center
02:04PM 40.8561 -76.8344 21° North 292 336 15,000  Level New York Center
02:05PM 40.9311 -76.7944 22° Northeast 287 330 15,000 -300 Level New York Center
02:06PM 41.0039 -76.7569 21° North 281 323 14,400 -900 Descending New York Center
02:07PM 41.0828 -76.7169 21° North 281 323 13,200 -1,200 Descending New York Center
02:08PM 41.1644 -76.6719 23° Northeast 292 336 12,000 -1,100 Descending New York Center
02:09PM 41.2417 -76.6261 24° Northeast 300 345 11,000 -500 Descending New York Center
02:10PM 41.3164 -76.5883 21° North 295 339 11,000  Level New York Center
02:11PM 41.3897 -76.5781 North 281 323 11,000  Level New York Center
02:12PM 41.4561 -76.5839 356° North 272 313 11,000  Level New York Center
02:13PM 41.5328 -76.5933 355° North 272 313 11,000 -550 Level New York Center
02:14PM 41.6153 -76.6117 351° North 272 313 9,900 -1,000 Descending New York Center
02:15PM 41.6886 -76.6458 341° North 279 321 9,000 -450 Descending New York Center
02:16PM 41.7556 -76.6767 341° North 261 300 9,000  Level New York Center
02:17PM 41.8231 -76.7022 344° North 261 300 9,000 -1,000 Level New York Center
02:18PM 41.8831 -76.6686 23° Northeast 223 257 7,000 -2,000 Descending New York Center
02:19PM 41.9386 -76.6008 42° Northeast 235 270 5,000 -1,000 Descending New York Center
02:20PM 41.9797 -76.5236 54° Northeast 240 276 5,000  Level New York Center
02:21PM 42.0169 -76.4403 59° Northeast 245 282 5,000 50 Level New York Center
02:22PM 42.0564 -76.3600 56° Northeast 251 289 5,100  Climbing New York Center
02:23PM 42.0914 -76.2764 61° Northeast 251 289 5,000 -450 Descending New York Center
02:24PM 42.1239 -76.2064 58° Northeast 251 289 4,200 -950 Descending New York Center
02:25PM 42.1744 -76.1461 41° Northeast 245 282 3,100 -550 Descending New York Center
02:26PM 42.2203 -76.0994 37° Northeast 222 255 3,100 -200 Level New York Center
02:27PM 42.2458 -76.0369 61° Northeast 201 231 2,700 -500 Descending New York Center
02:28PM 42.2397 -75.9889 100° East 170 196 2,100 4,150 Descending New York Center
02:29PM 42.2461 -75.9392 80° East 170 196 11,000 4,450 Climbing New York Center
02:30PM 42.2542 -75.8922 77° East 170 196 11,000  Level New York Center
02:32PM 42.2000 -75.9667 North  Level FlightAware Approximate